Wind_Speed
4 5 6 6 6 7 7 6 5 4 5 6 6 6 6 6 7 8 8 7 7 6 6 7 9 12 14 13 15 16 17 18 18 17 16 16 16 18 18 20 19 19 17 17 17
4 5 5 6 5 4 4 5 5 5 6 7 7 6 5 6 7 8 8 9 9 8 9 7 7 8 10 13 16 17 17 20 19 19 18 19 17 17 19 19 21 19 18 19 18
5 5 6 6 6 6 5 5 5 6 7 8 8 7 6 6 6 7 7 7 7 8 9 7 8 9 11 12 14 13 14 17 18 19 18 19 20 21 21 22 20 21 21 21 21
5 6 6 6 7 8 7 7 7 7 8 9 10 10 9 8 8 8 9 10 9 9 10 9 10 11 12 12 15 15 14 16 17 17 17 18 20 22 23 21 21 21 24 24 26
8 7 7 7 7 7 8 9 8 8 9 11 11 12 12 11 10 9 10 10 9 10 9 11 13 13 13 14 15 16 12 15 16 16 15 19 20 21 22 23 24 25 27 29 28
11 11 9 9 8 9 9 8 8 9 10 11 13 13 14 12 11 12 11 11 11 11 11 13 15 16 16 17 17 15 12 13 13 13 20 21 21 21 22 24 26 27 25 23 23
14 13 13 12 11 10 10 10 9 9 10 11 13 14 14 11 12 12 12 13 12 13 13 14 14 14 15 16 16 14 14 16 18 21 20 19 20 22 23 24 24 22 18 18 18
17 17 16 15 14 13 12 11 11 10 11 12 13 14 14 13 12 13 14 14 12 13 15 14 14 15 14 13 13 13 14 15 18 19 19 18 20 21 20 15 15 15 17 12 11
21 20 20 19 18 16 16 15 13 13 13 13 14 13 14 15 13 14 16 15 14 14 15 15 15 16 15 14 14 15 16 17 19 19 18 15 16 15 14 12 11 14 14 14 15
23 22 22 22 21 20 19 16 16 14 15 15 15 15 15 15 15 14 16 15 16 17 16 16 16 16 15 15 15 16 17 20 19 17 15 14 15 13 12 10 9 10 11 13 16
25 25 25 24 23 22 21 18 17 16 18 18 17 18 18 17 17 16 17 17 18 19 17 16 17 17 17 18 19 19 20 19 18 17 16 16 17 17 13 11 11 12 14 15 16
25 26 27 26 27 25 23 21 19 19 21 19 19 21 20 21 21 21 19 20 21 21 21 20 21 20 19 19 20 20 21 19 17 18 18 19 20 20 18 16 15 15 18 20 22
26 25 27 27 28 29 26 24 23 22 20 23 19 22 22 23 25 24 22 24 25 24 22 24 24 23 22 20 20 20 20 20 19 19 20 22 23 22 21 19 19 20 22 23 27
31 29 29 30 27 30 29 28 26 25 22 23 21 23 21 24 25 24 27 26 26 25 24 25 23 24 23 20 20 20 20 22 21 22 25 25 23 24 25 22 22 25 26 26 29
35 34 33 33 34 32 29 30 29 27 27 24 22 22 23 24 25 24 28 28 29 27 25 25 24 24 23 22 21 21 23 24 24 25 26 24 28 26 23 22 24 26 27 28 31
42 40 38 37 37 39 34 31 33 31 30 26 23 23 22 23 23 25 28 29 30 28 27 27 25 24 25 23 23 24 24 24 25 25 27 26 29 28 26 25 27 28 28 30 34
38 41 41 42 38 40 38 35 35 36 29 30 28 27 26 23 23 25 28 29 29 29 28 29 26 25 26 24 23 25 24 24 26 27 27 28 31 29 29 27 29 30 31 34 36
29 30 31 31 39 42 41 39 40 38 32 32 31 30 29 28 27 27 28 28 26 29 29 27 26 25 25 24 25 27 26 25 27 28 29 30 33 29 29 29 30 33 34 36 35
25 24 25 27 29 33 41 43 41 36 35 32 33 34 34 30 30 30 29 30 30 28 28 27 28 27 27 28 28 28 26 26 27 29 31 30 30 30 29 32 34 33 35 36 35
21 20 22 24 25 29 32 37 39 40 35 33 36 38 39 37 36 33 31 28 28 28 29 28 28 26 26 28 28 29 29 28 29 34 32 31 28 27 30 32 33 34 36 36 37
22 21 18 22 24 26 29 31 37 37 38 36 38 42 40 37 38 35 34 31 29 26 26 30 30 27 28 25 28 30 31 30 31 33 32 32 28 26 28 31 34 36 38 37 38
24 22 20 21 24 26 28 31 33 35 37 38 39 43 44 41 42 39 37 33 32 29 27 24 28 30 24 25 27 29 30 31 33 29 30 30 27 25 29 31 34 35 36 37 40
27 26 24 21 23 26 28 29 32 33 33 39 43 44 47 46 44 41 39 36 35 30 30 26 28 27 25 22 21 25 29 31 31 32 32 34 30 31 30 32 33 34 35 38 38
30 30 29 28 26 27 28 30 33 34 35 36 39 43 46 47 48 47 42 41 39 35 33 32 32 32 28 25 25 26 28 31 32 34 34 34 34 32 33 33 33 34 37 37 39
34 33 33 33 31 29 30 32 32 34 33 34 38 42 46 45 45 53 51 47 45 38 36 35 35 34 34 30 28 29 30 32 35 37 40 36 36 34 33 33 34 35 37 39 40
36 37 35 37 35 33 33 33 34 33 35 32 35 42 44 47 43 45 50 50 48 44 41 40 39 38 37 35 33 32 34 35 38 39 37 36 34 33 33 34 35 36 38 39 38
38 39 38 39 38 34 33 32 32 31 34 34 32 35 42 42 47 43 42 43 45 44 41 38 39 39 39 38 38 39 36 37 37 38 37 36 35 36 36 37 36 36 37 38 39
Wind_Direction
310 308 300 291 277 271 268 262 258 250 237 235 228 225 222 225 224 227 233 228 229 231 216 215 223 227 229 226 226 230 233 244 256 264 267 269 274 287 296 298 307 314 305 304 302
320 319 313 307 301 285 270 264 255 251 241 236 230 229 225 225 225 225 230 235 239 240 237 223 224 231 226 222 231 237 242 250 257 268 274 280 286 293 299 307 305 303 306 304 299
309 314 310 302 294 285 273 263 265 258 247 238 233 232 224 225 231 227 225 222 222 229 228 211 216 224 232 231 239 239 243 250 258 263 273 285 291 296 297 299 296 296 298 297 301
293 305 309 306 297 284 280 276 265 256 252 241 239 242 241 237 233 231 226 226 221 214 211 205 215 219 225 233 243 245 245 253 257 261 270 276 280 281 287 289 286 291 297 303 308
284 289 299 304 303 297 289 278 269 257 249 247 247 251 250 244 242 241 239 233 226 216 217 217 213 218 218 217 226 236 240 256 264 269 272 264 265 276 284 288 297 302 308 312 309
279 287 289 293 298 300 296 290 276 262 253 248 249 251 254 249 244 243 238 233 227 223 222 231 231 227 219 220 220 228 228 233 253 253 253 259 270 279 285 290 296 303 308 303 301
273 277 283 287 288 292 296 294 283 271 264 256 253 253 255 249 242 239 236 229 227 223 226 235 241 244 236 229 229 228 226 224 231 239 254 261 260 265 275 283 295 297 296 291 297
270 273 275 279 283 287 286 285 285 279 268 266 264 262 259 255 241 239 235 238 232 230 231 231 234 233 235 228 229 237 249 250 252 258 262 266 267 265 270 283 279 279 278 280 283
268 270 273 275 277 278 280 283 284 285 276 265 264 264 263 261 252 246 244 241 235 234 239 239 233 227 227 231 241 250 259 261 264 261 260 257 257 261 274 266 267 267 271 281 289
259 262 265 268 271 273 275 277 278 277 273 268 259 257 254 257 263 256 250 246 238 233 236 235 233 235 238 245 251 252 252 251 251 251 255 240 245 256 257 246 235 245 263 278 288
260 260 260 262 264 265 268 270 273 272 268 266 259 256 251 254 252 252 254 250 245 240 237 236 234 239 244 250 250 250 256 260 256 249 241 236 240 248 251 243 249 260 269 280 284
267 266 267 263 264 264 264 264 263 261 266 262 263 259 254 251 249 253 247 248 250 248 242 236 236 237 243 250 255 259 265 260 252 251 255 248 249 261 267 267 267 275 284 294 299
269 271 270 268 267 266 265 263 260 257 256 263 257 258 251 253 253 254 252 248 248 249 248 246 243 241 244 246 252 257 259 255 256 256 249 245 250 261 269 280 283 290 291 297 302
269 267 267 271 267 267 266 264 262 258 255 256 254 254 255 247 252 253 254 252 250 250 248 247 246 244 248 247 252 256 251 257 261 258 256 258 264 268 275 282 287 295 295 297 297
264 266 266 265 268 263 265 265 264 263 261 253 253 251 253 250 254 253 251 253 253 250 249 247 243 246 247 250 254 256 253 255 259 261 264 270 270 269 275 283 285 289 293 295 295
260 258 259 259 259 263 260 260 264 262 260 258 255 251 250 252 250 251 253 251 250 249 248 247 245 245 251 253 255 259 260 260 262 264 265 270 273 275 284 288 289 290 293 291 292
267 265 264 260 258 258 259 257 256 259 259 259 255 250 249 249 248 246 249 251 251 249 247 247 246 247 253 256 256 259 264 266 267 270 274 273 274 281 287 286 286 288 289 292 297
267 267 267 267 261 258 256 254 254 257 255 255 257 256 255 253 248 247 247 252 250 251 249 248 248 243 248 251 255 259 264 268 271 272 275 276 279 285 289 291 288 289 294 299 305
268 270 272 271 269 263 257 255 254 253 254 253 250 252 252 246 246 243 243 246 248 247 245 246 246 246 247 251 253 259 265 267 271 273 274 277 283 287 288 287 289 293 297 300 297
265 267 271 273 271 270 268 261 257 253 249 243 245 245 249 249 248 245 238 233 240 244 245 242 245 248 252 254 260 263 263 265 268 270 272 274 279 283 283 285 289 292 294 297 294
262 268 271 278 279 273 269 264 258 254 251 242 239 243 243 243 248 245 243 233 226 231 238 244 246 245 248 251 255 261 266 266 268 272 277 279 280 286 285 285 289 294 296 296 305
256 260 265 271 278 280 276 267 259 255 250 247 241 240 244 245 247 247 247 240 234 232 234 244 249 252 252 251 257 263 269 273 274 281 281 284 281 285 284 285 289 293 297 304 305
260 259 262 262 271 276 278 275 267 260 251 247 244 241 240 242 248 248 249 247 245 249 252 251 251 257 254 254 258 266 271 277 283 286 284 284 293 291 288 290 291 294 302 304 303
259 262 262 266 269 271 274 276 272 266 259 247 245 242 242 243 243 246 244 250 248 251 258 262 262 259 261 261 263 268 270 275 279 281 284 285 287 289 290 292 297 303 303 301 304
260 261 261 266 270 271 272 273 270 266 263 257 246 244 239 244 243 246 249 249 253 249 250 261 264 263 266 267 269 274 277 278 280 280 280 285 285 289 294 297 300 300 302 303 301
263 261 259 262 267 270 271 268 267 266 262 259 252 247 246 242 245 244 248 251 252 252 250 252 260 259 260 264 267 271 274 280 280 281 284 287 288 291 294 296 297 302 301 299 295
262 259 258 262 266 267 270 267 263 265 266 261 256 249 249 249 244 243 248 248 252 256 254 252 252 254 258 263 267 268 274 275 274 279 284 288 292 294 295 296 299 296 290 294 303
Height
5863 5862 5862 5862 5862 5863 5863 5864 5864 5864 5864 5864 5864 5865 5865 5866 5866 5867 5868 5869 5870 5871 5872 5873 5874 5875 5877 5878 5878 5879 5880 5878 5880 5881 5883 5885 5887 5887 5888 5888 5888 5889 5889 5888 5887
5862 5862 5861 5861 5861 5862 5862 5863 5863 5863 5863 5863 5863 5864 5864 5865 5865 5866 5867 5867 5868 5869 5871 5872 5873 5874 5876 5876 5876 5878 5879 5878 5879 5879 5880 5880 5883 5885 5886 5886 5885 5884 5882 5882 5882
5862 5862 5861 5861 5861 5861 5861 5862 5862 5862 5861 5861 5862 5863 5863 5864 5865 5865 5865 5865 5866 5868 5869 5870 5872 5873 5874 5875 5875 5876 5876 5876 5878 5878 5879 5878 5879 5881 5881 5882 5881 5879 5879 5878 5878
5860 5860 5860 5860 5860 5860 5860 5860 5860 5861 5860 5860 5860 5861 5862 5862 5864 5863 5863 5864 5865 5866 5867 5868 5869 5870 5872 5874 5874 5874 5875 5874 5874 5876 5878 5878 5878 5877 5878 5878 5876 5875 5874 5874 5873
5859 5859 5858 5859 5859 5858 5858 5858 5859 5859 5858 5858 5858 5858 5860 5861 5861 5861 5861 5862 5863 5864 5865 5866 5866 5868 5869 5871 5871 5871 5873 5873 5873 5873 5875 5874 5874 5874 5873 5871 5871 5870 5868 5866 5864
5857 5857 5856 5856 5856 5857 5857 5857 5857 5857 5857 5856 5856 5856 5857 5859 5859 5858 5859 5860 5861 5861 5862 5863 5864 5865 5866 5867 5868 5869 5870 5871 5871 5872 5871 5871 5871 5871 5869 5867 5866 5866 5864 5862 5860
5854 5854 5854 5854 5854 5854 5854 5854 5854 5854 5855 5854 5854 5854 5854 5856 5855 5855 5856 5856 5858 5858 5859 5860 5862 5864 5864 5865 5865 5866 5867 5867 5868 5869 5870 5871 5871 5870 5868 5866 5864 5863 5861 5859 5857
5850 5851 5851 5851 5851 5851 5851 5851 5851 5852 5852 5852 5852 5852 5852 5852 5853 5853 5853 5853 5855 5856 5856 5858 5859 5860 5862 5863 5864 5864 5865 5865 5865 5866 5868 5870 5868 5866 5865 5865 5863 5861 5859 5856 5855
5846 5846 5847 5847 5847 5847 5848 5848 5848 5849 5849 5849 5849 5850 5850 5850 5850 5851 5851 5852 5853 5853 5855 5856 5857 5858 5859 5860 5861 5862 5863 5863 5863 5863 5863 5864 5864 5864 5863 5863 5861 5858 5856 5855 5854
5840 5840 5841 5841 5843 5843 5843 5845 5845 5845 5845 5845 5846 5848 5847 5847 5848 5849 5848 5850 5850 5850 5852 5854 5854 5855 5857 5857 5858 5858 5858 5859 5859 5860 5859 5860 5860 5861 5861 5861 5859 5857 5856 5854 5852
5834 5835 5835 5836 5836 5837 5839 5840 5842 5843 5841 5842 5842 5842 5842 5844 5844 5845 5845 5846 5847 5848 5849 5851 5851 5852 5853 5853 5853 5854 5854 5855 5856 5856 5857 5856 5856 5858 5858 5858 5857 5855 5853 5851 5850
5829 5830 5830 5832 5831 5831 5833 5834 5836 5836 5836 5837 5837 5837 5838 5839 5839 5840 5842 5842 5842 5844 5846 5848 5847 5848 5849 5849 5850 5851 5851 5851 5852 5853 5854 5854 5853 5852 5853 5853 5852 5851 5849 5847 5844
5824 5825 5824 5825 5826 5826 5827 5828 5829 5829 5831 5831 5833 5832 5834 5835 5834 5836 5838 5838 5838 5839 5842 5843 5843 5844 5844 5845 5846 5846 5847 5847 5848 5849 5850 5850 5850 5849 5848 5848 5847 5846 5844 5842 5839
5816 5818 5819 5818 5821 5820 5821 5821 5823 5823 5826 5826 5827 5827 5830 5829 5829 5831 5831 5833 5834 5835 5837 5838 5838 5839 5839 5840 5841 5841 5842 5842 5844 5845 5844 5845 5846 5845 5844 5844 5843 5841 5838 5836 5834
5807 5809 5811 5812 5812 5813 5816 5816 5816 5818 5819 5821 5821 5821 5821 5824 5826 5826 5825 5826 5827 5829 5832 5833 5833 5834 5835 5835 5836 5838 5839 5839 5840 5839 5839 5840 5838 5840 5840 5839 5837 5836 5834 5831 5828
5796 5799 5801 5803 5803 5803 5808 5809 5810 5812 5812 5814 5814 5815 5816 5817 5818 5819 5820 5822 5822 5824 5826 5826 5829 5830 5830 5831 5832 5833 5834 5835 5834 5834 5834 5835 5833 5834 5834 5834 5832 5830 5828 5825 5822
5786 5788 5791 5792 5794 5795 5798 5801 5803 5803 5807 5807 5808 5809 5809 5811 5812 5813 5813 5814 5816 5818 5820 5821 5824 5825 5825 5827 5828 5827 5828 5829 5830 5829 5830 5828 5827 5830 5829 5828 5826 5824 5821 5819 5816
5777 5780 5781 5782 5783 5784 5787 5790 5793 5796 5798 5799 5802 5803 5804 5805 5806 5806 5807 5808 5810 5812 5814 5816 5818 5819 5820 5821 5822 5822 5823 5824 5823 5824 5824 5823 5822 5824 5823 5821 5818 5815 5814 5811 5809
5770 5772 5772 5773 5773 5774 5778 5779 5783 5786 5789 5792 5793 5795 5796 5797 5798 5799 5801 5803 5804 5807 5810 5810 5812 5813 5814 5814 5816 5816 5818 5818 5818 5817 5817 5819 5819 5818 5816 5813 5810 5809 5807 5805 5803
5763 5764 5764 5765 5766 5767 5768 5771 5774 5775 5779 5782 5783 5785 5787 5789 5792 5793 5794 5798 5798 5800 5801 5804 5806 5807 5808 5809 5811 5810 5811 5813 5812 5809 5811 5812 5814 5813 5809 5806 5804 5803 5801 5799 5795
5757 5756 5757 5757 5759 5760 5760 5761 5763 5765 5770 5773 5774 5774 5777 5781 5783 5786 5789 5792 5792 5794 5795 5797 5799 5802 5802 5805 5804 5804 5805 5806 5805 5805 5804 5805 5808 5807 5803 5800 5797 5795 5793 5789 5785
5749 5748 5751 5751 5752 5751 5753 5754 5754 5756 5759 5763 5766 5766 5767 5770 5772 5777 5781 5784 5787 5788 5789 5792 5792 5793 5797 5797 5797 5798 5798 5799 5798 5800 5798 5798 5800 5800 5796 5794 5791 5788 5785 5782 5776
5739 5739 5741 5742 5743 5744 5745 5746 5746 5747 5749 5752 5755 5759 5760 5762 5763 5767 5772 5777 5780 5780 5783 5787 5787 5787 5789 5792 5793 5793 5792 5791 5791 5791 5791 5789 5792 5788 5789 5787 5785 5782 5779 5775 5769
5730 5730 5732 5733 5734 5736 5737 5737 5738 5738 5740 5742 5745 5748 5752 5756 5757 5759 5763 5766 5770 5775 5777 5777 5778 5780 5783 5785 5786 5787 5786 5785 5785 5784 5783 5782 5782 5783 5781 5780 5777 5775 5771 5767 5762
5720 5721 5722 5724 5725 5726 5729 5729 5729 5730 5731 5733 5735 5736 5739 5744 5748 5748 5754 5758 5760 5767 5769 5771 5772 5774 5775 5777 5779 5779 5779 5778 5778 5777 5774 5777 5775 5775 5774 5772 5770 5767 5763 5759 5753
5709 5711 5713 5715 5715 5716 5718 5720 5720 5722 5722 5723 5725 5727 5729 5733 5736 5740 5743 5747 5751 5755 5760 5763 5764 5767 5768 5770 5771 5773 5771 5771 5768 5766 5767 5767 5768 5768 5767 5765 5762 5760 5756 5750 5745
5697 5700 5702 5704 5705 5705 5707 5708 5711 5713 5715 5715 5715 5717 5720 5722 5724 5729 5732 5737 5741 5744 5749 5753 5755 5758 5760 5762 5762 5763 5766 5765 5763 5761 5760 5759 5759 5759 5758 5756 5755 5752 5747 5743 5739